CW3821 Weather Reports


time (UTC)temp
F
wind
direction
speed
knots
gust
knots
rain 1hr
in
rain 24hr
in
rain mn
in
humidity
%
barometer
mb
20260906223025 91 145 1.7 0.0 0.00 0.00 0.00 26 998.1
20260906221505 92 92 1.7 0.0 0.00 0.00 0.00 24 997.9
20260906220053 90 322 3.5 0.0 0.00 0.00 0.00 26 998.0
20260906214536 91 11 1.7 0.0 0.00 0.00 0.00 26 998.2
20260906213020 89 332 2.6 0.0 0.00 0.00 0.00 26 998.5
20260906211515 89 21 3.5 0.0 0.00 0.00 0.00 27 999.3
20260906210057 88 55 5.2 0.0 0.00 0.00 0.00 27 999.2
20260906204559 87 347 4.3 0.0 0.00 0.00 0.00 28 999.8
20260906203024 87 64 4.3 0.0 0.00 0.00 0.00 29 999.9
20260906201513 87 96 2.6 0.0 0.00 0.00 0.00 28 1000.0
20260906200059 86 3 2.6 0.0 0.00 0.00 0.00 28 1000.1
20260906194540 86 128 3.5 0.0 0.00 0.00 0.00 29 999.9
20260906193031 85 35 1.7 0.0 0.00 0.00 0.00 29 1000.5
20260906191519 84 349 2.6 0.0 0.00 0.00 0.00 32 1000.5
20260906190049 83 24 3.5 0.0 0.00 0.00 0.00 33 1001.2
20260906184531 83 58 2.6 0.0 0.00 0.00 0.00 34 1001.6
20260906183025 82 79 3.5 0.0 0.00 0.00 0.00 37 1001.7
20260906181508 82 83 1.7 0.0 0.00 0.00 0.00 38 1001.9
20260906180104 82 8 1.7 0.0 0.00 0.00 0.00 37 1002.2
20260906174541 80 66 1.7 0.0 0.00 0.00 0.00 38 1002.5
20260906173021 80 168 1.7 0.0 0.00 0.00 0.00 40 1002.9
20260906171511 79 120 0.9 0.0 0.00 0.00 0.00 44 1003.5
20260906170059 79 308 0.9 0.0 0.00 0.00 0.00 44 1003.4
20260906164532 77 219 1.7 0.0 0.00 0.00 0.00 47 1003.9
20260906163017 77 102 0.9 0.0 0.00 0.00 0.00 48 1003.8
20260906161514 75 51 1.7 0.0 0.00 0.00 0.00 50 1004.0
20260906160053 74 106 0.9 0.0 0.00 0.00 0.00 55 1004.2
20260906154536 74 47 0.9 0.0 0.00 0.00 0.00 56 1003.9
20260906153027 73 49 0.9 0.0 0.00 0.00 0.00 60 1004.3
20260906151510 72 339 0.9 0.0 0.00 0.00 0.00 62 1004.7
20260906150052 71 350 0.9 0.0 0.00 0.00 0.00 63 1004.7
20260906144535 70 313 0.9 0.0 0.00 0.00 0.00 64 1005.1
20260906143021 69 281 0.0 0.0 0.00 0.00 0.00 65 1005.1
20260906141555 68 309 0.9 0.0 0.00 0.00 0.00 68 1005.3
20260906140035 67 277 1.7 0.0 0.00 0.00 0.00 68 1004.6
20260906134521 65 315 0.0 0.0 0.00 0.00 0.00 69 1005.1
20260906133004 64 287 0.9 0.0 0.00 0.00 0.00 70 1004.9
20260906131546 63 356 0.0 0.0 0.00 0.00 0.00 73 1005.2
20260906130029 63 59 0.0 0.0 0.00 0.00 0.00 74 1004.4
20260906124515 63 61 0.0 0.0 0.00 0.00 0.00 75 1004.0
20260906123058 63 55 0.0 0.0 0.00 0.00 0.00 75 1004.0
20260906121536 64 66 0.0 0.0 0.00 0.00 0.00 75 1004.0
20260906120025 64 51 0.9 0.0 0.00 0.00 0.00 74 1003.5
20260906114517 64 45 0.9 0.0 0.00 0.00 0.00 73 1003.4
20260906113101 64 52 0.9 0.0 0.00 0.00 0.00 70 1003.5
20260906111539 65 38 0.9 0.0 0.00 0.00 0.00 67 1003.2
20260906110027 65 49 1.7 0.0 0.00 0.00 0.00 64 1002.4
20260906104519 66 56 1.7 0.0 0.00 0.00 0.00 62 1002.4
20260906103056 67 30 1.7 0.0 0.00 0.00 0.00 61 1002.1
20260906101539 67 32 1.7 0.0 0.00 0.00 0.00 57 1001.7
20260906100019 68 35 0.9 0.0 0.00 0.00 0.00 54 1002.2
20260906094532 68 45 0.0 0.0 0.00 0.00 0.00 51 1002.1
20260906093011 68 58 0.9 0.0 0.00 0.00 0.00 50 1002.0
20260906091544 69 66 0.9 0.0 0.00 0.00 0.00 51 1001.9
20260906090029 70 103 0.0 0.0 0.00 0.00 0.00 49 1001.7
20260906084509 71 95 0.0 0.0 0.00 0.00 0.00 47 1001.2
20260906083100 71 79 0.0 0.0 0.00 0.00 0.00 46 1001.3
20260906081536 72 3 0.0 0.0 0.00 0.00 0.00 44 1001.3
20260906080028 73 243 0.9 0.0 0.00 0.00 0.00 42 1001.2
20260906074513 73 240 1.7 0.0 0.00 0.00 0.00 41 1000.6
20260906073048 73 272 2.6 0.0 0.00 0.00 0.00 41 1000.4
20260906071537 73 251 5.2 0.0 0.00 0.00 0.00 42 1000.4
20260906070013 73 336 5.2 0.0 0.00 0.00 0.00 42 1000.7
20260906064600 73 325 2.6 0.0 0.00 0.00 0.00 44 1001.4
20260906064503 72 16 1.7 0.0 0.00 0.00 0.00 44 1001.4
20260906063039 72 14 0.0 0.0 0.00 0.00 0.00 46 1001.6
20260906061526 73 14 0.0 0.0 0.00 0.00 0.00 43 1001.4
20260906060011 74 11 0.9 0.0 0.00 0.00 0.00 42 1001.8
20260906054545 75 13 1.7 0.0 0.00 0.00 0.00 41 1001.6
20260906053024 76 16 0.9 0.0 0.00 0.00 0.00 38 1001.7
20260906051510 77 13 0.9 0.0 0.00 0.00 0.00 36 1002.0
20260906050048 77 13 0.9 0.0 0.00 0.00 0.00 34 1002.3
20260906044534 77 11 2.6 0.0 0.00 0.00 0.00 32 1002.5
20260906043028 76 8 3.5 0.0 0.00 0.00 0.00 32 1002.4
20260906041506 77 8 0.9 0.0 0.00 0.00 0.00 32 1001.8
20260906040052 77 17 1.7 0.0 0.00 0.00 0.00 30 1001.7
20260906034535 76 17 0.9 0.0 0.00 0.00 0.00 33 1001.4
20260906033023 76 13 0.0 0.0 0.00 0.00 0.00 34 1001.6
20260906031554 76 13 0.0 0.0 0.00 0.00 0.00 33 1001.2
20260906030043 77 13 0.0 0.0 0.00 0.00 0.00 32 1001.9
20260906024526 79 17 0.0 0.0 0.00 0.00 0.00 30 1001.2
20260906023016 81 305 0.9 0.0 0.00 0.00 0.00 26 1000.8
20260906021609 82 357 1.7 0.0 0.00 0.00 0.00 25 1000.7
20260906020048 82 305 3.5 0.0 0.00 0.00 0.00 24 1001.7
20260906014548 83 340 0.9 0.0 0.00 0.00 0.00 24 1001.6
20260906013018 84 356 1.7 0.0 0.00 0.00 0.00 23 1001.0
20260906011559 85 169 2.6 0.0 0.00 0.00 0.00 22 1000.7
20260906011502 85 176 2.6 0.0 0.00 0.00 0.00 22 1000.7
20260906010044 86 233 2.6 0.0 0.00 0.00 0.00 21 1001.9
20260906004538 88 280 1.7 0.0 0.00 0.00 0.00 20 1001.6
20260906003020 89 0 0.9 0.0 0.00 0.00 0.00 19 1001.6
20260906001554 89 8 0.9 0.0 0.00 0.00 0.00 18 1001.2
20260906000044 89 359 1.7 0.0 0.00 0.00 0.00 18 1001.1
20260905234527 90 0 2.6 0.0 0.00 0.00 0.00 17 1001.2
20260905233012 91 347 2.6 0.0 0.00 0.00 0.00 17 1000.8
20260905231554 93 62 0.9 0.0 0.00 0.00 0.00 16 1000.7
20260905231504 93 76 0.9 0.0 0.00 0.00 0.00 16 1000.7
20260905230045 92 281 1.7 0.0 0.00 0.00 0.00 16 1000.3
20260905224535 92 254 1.7 0.0 0.00 0.00 0.00 16 1000.3